Starlink 30271

operational
NORAD ID: 57669 Int'l Des: 2023-124 Owner: SPXS Country: US Constellation: starlink
LEOCIRCULAR

Über Starlink 30271

Beschreibung wird geladen...

Live-Position

3D-Globus wird geladen...

Nächste Überflüge

Höhenverlauf

Altitude vs Time

uPlot chart will show altitude changes over time

Zweizeiliger Elementsatz

1 57669U 23124G 26035.27164664 -.00002591 00000-0 -75356-4 0 9996
2 57669 53.1631 2.2741 0001396 105.2313 254.8842 15.30203950138445
Epoch: 4. Feb. 2026 • Age: 17 hours

Aktueller Status

Höhe 481.4 km
Geschwindigkeit 7.62 km/s
Subsatellitenpunkt -19.93°S, 146.65°W
Startdatum 22. Aug. 2023
Alter 2.4 years
Typ internet

Technische Details

Klassifizierung Payload
Masse 730.00 kg
Trockenmasse 700.00 kg
Gesamtmasse 730.00 kg
Länge 0.30 m
Durchmesser 4.10 m
Spannweite 29.00 m
Form Box + pan
Hersteller SPXS
Bus-Typ Starlink V2M
Phasenstatus In Orbit
Besitzer/Staat SPXS/US

Große Konstellationen

Loading constellations...